This is the latest recevied weather packets stored in our database for station/object AB4KN. If no packets are shown the sender has not sent any weather packets the latest 10 day(s).
| Time | Temp. | Humidity | Pressure | Rain* | Wind** | Luminosity | Snow |
|---|---|---|---|---|---|---|---|
| 1777935426 | 24.44° C | 31% | 1019.5 hPa | 0 mm | - | 15 W/m² | - |
| 1777935122 | 24.44° C | 30% | 1019.4 hPa | 0 mm | - | 16 W/m² | - |
| 1777934819 | 24.44° C | 31% | 1019.5 hPa | 0 mm | - | 13 W/m² | - |
| 1777934516 | 25° C | 31% | 1019.6 hPa | 0 mm | - | 14 W/m² | - |
| 1777934213 | 25° C | 29% | 1019.5 hPa | 0 mm | - | 16 W/m² | - |
| 1777933908 | 25° C | 29% | 1019.6 hPa | 0 mm | - | 20 W/m² | - |
| 1777933606 | 25° C | 30% | 1019.7 hPa | 0 mm | - | 25 W/m² | - |
| 1777933302 | 25° C | 30% | 1019.8 hPa | 0 mm | - | 25 W/m² | - |
| 1777933000 | 25° C | 31% | 1019.6 hPa | 0 mm | - | 22 W/m² | - |
| 1777932697 | 25° C | 31% | 1019.6 hPa | 0 mm | - | 22 W/m² | - |
| 1777932393 | 25° C | 31% | 1019.6 hPa | 0 mm | - | 23 W/m² | - |
| 1777932091 | 25° C | 31% | 1019.6 hPa | 0 mm | - | 29 W/m² | - |
| 1777931787 | 25° C | 31% | 1019.7 hPa | 0 mm | - | 35 W/m² | - |
| 1777931485 | 25° C | 29% | 1019.7 hPa | 0 mm | - | 39 W/m² | - |
| 1777931180 | 25° C | 33% | 1019.5 hPa | 0 mm | - | 42 W/m² | - |
| 1777930877 | 25° C | 30% | 1019.6 hPa | 0 mm | - | 42 W/m² | - |
| 1777930573 | 25° C | 31% | 1019.4 hPa | 0 mm | - | 41 W/m² | - |
| 1777930270 | 25° C | 31% | 1019.4 hPa | 0 mm | - | 55 W/m² | - |
| 1777929966 | 24.44° C | 32% | 1019.5 hPa | 0 mm | - | 63 W/m² | - |
| 1777929664 | 24.44° C | 33% | 1019.4 hPa | 0 mm | - | 39 W/m² | - |
| 1777929361 | 25° C | 32% | 1019.3 hPa | 0 mm | - | 26 W/m² | - |
| 1777929057 | 25° C | 30% | 1019.4 hPa | 0 mm | - | 33 W/m² | - |
| 1777928755 | 25° C | 30% | 1019.6 hPa | 0 mm | - | 49 W/m² | - |
| 1777928451 | 25° C | 30% | 1019.6 hPa | 0 mm | - | 61 W/m² | - |
| 1777928149 | 24.44° C | 31% | 1019.6 hPa | 0 mm | - | 65 W/m² | - |
* Rain latest hour (hover to see other rain measurements)
** Current wind speed in m/s (hover to see current wind gust speed)